GEFSSE_con_cape1000_282.txt.gz
Probability
29 45 48 52 45 55 52 52 58 58 61 58 42 45 45 45 45 45 45 42 39 29 19 23 19 19 16 13 10 6 10 10 10 10 10 13 6 10 3 3 3 6 6
23 42 45 48 48 45 52 55 55 52 52 55 39 42 42 42 42 45 45 39 35 32 19 19 19 19 16 6 6 6 6 13 10 10 6 3 3 6 3 3 3 3 3
19 39 42 42 45 48 45 48 48 48 45 42 35 42 42 42 42 42 39 35 32 29 23 16 16 16 13 6 6 10 10 10 3 0 3 3 3 3 3 3 3 3 3
19 32 32 42 45 42 48 45 48 48 45 32 32 39 39 42 45 42 42 35 29 29 19 16 16 13 13 10 10 10 10 3 0 0 0 0 0 3 3 3 3 3 3
19 32 35 42 42 42 35 39 45 42 42 35 32 32 35 42 42 42 39 35 29 26 19 16 13 13 13 13 10 10 3 3 0 0 0 0 0 3 3 3 3 3 3
35 32 35 42 39 42 39 35 35 32 32 26 29 32 39 42 35 39 39 29 26 23 19 13 10 10 13 10 10 10 3 0 0 0 0 0 0 3 3 3 3 3 3
29 32 35 35 39 39 39 32 32 35 29 26 26 32 39 35 39 35 35 23 26 23 13 10 10 10 13 13 6 3 3 0 0 0 0 0 0 3 3 3 3 3 3
26 29 29 35 39 45 35 35 35 32 29 26 29 35 35 35 29 29 29 23 23 16 16 10 10 10 13 13 3 3 0 0 0 0 0 0 0 3 3 3 3 3 0
19 29 29 29 32 35 32 35 32 32 29 35 32 29 29 26 29 26 23 23 19 16 13 10 10 10 10 3 3 0 0 0 0 0 0 0 0 3 3 3 3 3 0
23 26 26 29 26 23 26 16 19 26 26 26 26 16 16 19 26 23 16 13 13 10 13 6 10 10 6 3 3 0 0 0 0 0 0 0 0 3 3 3 3 3 3
23 26 26 26 26 16 16 6 10 16 23 23 16 10 6 16 16 13 3 10 10 10 6 6 10 6 3 3 0 0 0 0 0 0 0 0 0 3 3 3 3 3 3
13 19 23 29 16 13 13 13 16 13 19 19 16 13 13 16 10 3 3 3 10 6 6 6 6 3 0 0 0 0 0 0 0 0 0 0 3 3 3 3 3 3 3
10 10 16 13 16 10 13 13 13 13 13 13 13 16 13 10 6 6 3 3 6 3 6 3 3 3 0 0 0 0 0 0 3 0 0 0 0 3 3 3 3 3 0
6 10 10 6 13 13 10 10 13 13 10 13 10 13 6 10 6 3 3 3 10 6 6 3 3 3 0 0 0 0 3 3 0 0 0 0 0 3 3 3 3 0 0
6 3 0 6 6 6 10 13 6 10 10 6 13 10 6 6 6 3 3 3 6 3 3 3 3 0 0 0 0 0 0 0 0 0 0 0 0 0 3 3 0 0 0
6 0 3 6 6 6 6 6 6 6 6 10 10 10 6 3 0 3 0 3 0 3 3 3 3 0 0 0 0 0 0 0 0 0 0 0 0 0 0 3 3 3 0
6 3 3 6 6 6 6 6 6 6 6 6 6 3 3 3 0 0 0 0 0 0 0 3 0 0 0 0 0 0 0 0 0 0 0 0 0 0 0 0 0 3 0
3 3 3 0 3 6 6 6 6 6 6 6 6 3 3 3 0 0 3 0 0 0 0 0 0 0 0 0 0 0 0 0 0 0 0 0 0 0 0 0 0 0 0
3 0 0 0 3 6 6 6 6 6 6 6 6 3 3 3 3 0 3 0 0 0 0 0 0 0 0 0 0 0 0 0 0 0 0 0 0 0 0 0 0 0 0
3 3 0 0 0 6 6 6 6 6 6 6 6 3 3 3 3 0 3 0 0 0 0 0 0 0 0 0 0 0 0 0 0 0 0 0 0 0 0 0 0 0 0
3 6 3 0 0 0 3 3 3 3 3 6 3 3 3 3 0 0 0 0 0 0 0 0 0 0 0 0 0 0 0 0 0 0 0 0 0 0 0 0 0 0 0
3 3 6 3 0 0 0 0 3 3 3 0 0 0 0 0 0 0 0 0 0 0 0 0 0 0 0 0 0 0 0 0 0 0 0 0 0 0 0 0 0 0 0
3 3 6 6 3 0 0 0 0 0 0 0 0 0 0 0 0 0 0 0 0 0 0 0 0 0 0 0 0 0 0 0 0 0 0 0 0 0 0 0 0 0 0
3 3 3 6 6 3 0 0 0 0 0 0 0 0 0 0 0 0 0 0 0 0 0 0 0 0 0 0 0 0 0 0 0 0 0 0 0 0 0 0 0 0 0
0 0 3 3 6 6 6 3 0 0 0 0 0 0 0 0 0 0 0 0 0 0 0 0 0 0 0 0 0 0 0 0 0 0 0 0 0 0 0 0 0 0 0
0 0 0 0 3 6 3 3 3 3 0 0 0 0 0 0 0 0 0 0 0 0 0 0 0 0 0 0 0 0 0 0 0 0 0 0 0 0 0 0 0 0 0

GEFSSE_con_cape1000_288.txt.gz
Probability
35 29 42 39 39 48 48 48 48 48 48 45 42 45 45 42 45 42 45 39 35 29 26 26 23 16 13 10 10 10 10 13 10 13 13 10 6 6 3 3 6 3 6
32 35 42 45 42 52 48 45 48 52 52 48 45 39 42 45 42 39 42 39 35 29 26 23 23 16 10 10 10 10 6 6 6 10 10 10 3 3 0 0 0 0 3
32 32 42 45 45 45 48 52 45 45 42 45 42 39 39 39 39 42 45 42 35 32 29 23 23 16 10 10 10 6 6 6 3 6 0 0 0 0 0 0 0 0 3
29 29 29 42 45 45 48 48 42 39 39 39 39 32 35 35 39 39 39 39 39 32 26 26 16 13 10 10 10 10 10 10 10 0 0 0 0 0 0 0 0 3 3
19 26 32 45 45 42 45 45 39 29 29 32 39 32 32 35 39 39 39 35 35 26 29 23 13 13 10 10 10 10 10 10 3 0 0 0 0 0 0 0 0 3 3
23 29 32 42 42 39 45 35 35 32 29 26 35 29 32 32 39 39 32 32 32 26 23 13 13 13 13 10 10 10 6 3 0 0 0 0 0 0 0 0 0 0 3
23 29 32 42 42 39 42 35 29 26 29 26 26 23 29 32 32 32 32 32 32 23 23 13 10 13 13 10 10 10 6 3 0 0 0 0 0 0 0 0 0 0 0
26 19 32 42 42 39 39 39 29 29 26 26 26 26 23 29 29 29 26 32 29 23 19 10 13 10 13 10 10 10 3 0 0 0 0 0 0 3 3 0 0 0 0
19 16 23 26 29 32 35 35 29 29 26 16 26 26 26 26 29 26 23 29 23 16 16 10 6 10 13 10 10 3 3 0 0 0 0 0 0 3 3 0 0 0 0
16 13 16 16 19 26 23 19 26 19 16 19 19 16 13 13 26 26 23 23 19 13 13 6 6 10 10 6 3 3 0 0 0 0 0 0 0 3 0 0 0 0 0
16 16 16 19 19 13 13 13 10 10 13 16 13 10 10 6 6 10 6 10 10 6 10 6 6 6 6 3 3 0 0 0 0 0 0 0 3 0 0 0 0 0 0
13 13 10 13 6 13 13 6 3 3 6 6 6 6 3 3 3 3 3 6 3 3 6 6 6 6 0 3 0 0 0 0 0 0 0 0 3 3 0 0 0 0 0
10 13 13 10 6 6 10 3 3 3 3 6 6 3 3 3 3 3 0 0 0 0 0 3 3 0 0 0 0 0 0 0 0 0 0 0 0 3 0 0 0 0 0
6 13 10 10 3 3 0 0 3 3 3 3 6 6 3 3 3 3 3 0 0 0 0 0 0 0 0 0 0 0 0 0 0 0 0 0 0 0 0 0 0 0 0
3 6 10 10 3 0 0 0 0 3 3 3 3 6 3 3 3 3 3 3 0 0 0 0 0 0 0 0 0 0 0 0 0 0 0 0 0 0 3 0 0 0 0
0 3 6 6 6 0 0 0 0 0 3 3 3 3 3 3 3 3 0 0 0 0 0 0 0 0 0 0 0 0 0 0 0 0 0 0 0 0 0 0 0 0 0
0 0 3 6 3 3 0 0 0 0 0 3 3 3 3 3 3 3 0 0 0 0 0 0 0 0 0 0 0 0 0 0 0 0 0 0 0 0 0 0 0 0 0
0 0 0 3 3 3 0 0 0 0 0 3 3 3 3 3 3 3 0 0 0 0 0 0 0 0 0 0 0 0 0 0 0 0 0 0 0 0 0 0 0 0 0
0 0 0 0 3 3 0 0 0 0 3 3 3 3 3 3 3 3 0 0 0 0 0 0 0 0 0 0 0 0 0 0 0 0 0 0 0 0 0 0 0 0 0
0 0 0 0 0 0 0 0 0 0 3 0 0 3 3 3 0 0 0 0 0 0 0 0 0 0 0 0 0 0 0 0 0 0 0 0 0 0 0 0 0 0 0
0 0 0 0 0 0 0 0 0 0 0 0 0 0 0 0 0 0 0 0 0 0 0 0 0 0 0 0 0 0 0 0 0 0 0 0 0 0 0 0 0 0 0
0 0 0 0 0 0 0 0 0 0 0 0 0 0 0 0 0 0 0 0 0 0 0 0 0 0 0 0 0 0 0 0 0 0 0 0 0 0 0 0 0 0 0
3 3 0 0 0 0 0 0 0 0 0 0 0 0 0 0 0 0 0 0 0 0 0 0 0 0 0 0 0 0 0 0 0 0 0 0 0 0 0 0 0 0 0
0 0 0 3 3 3 0 0 0 0 0 0 0 0 0 0 0 0 0 0 0 0 0 0 0 0 0 0 0 0 0 0 0 0 0 0 0 0 0 0 0 0 0
0 0 0 0 0 3 0 0 0 0 0 0 0 0 0 0 0 0 0 0 0 0 0 0 0 0 0 0 0 0 0 0 0 0 0 0 0 0 0 0 0 0 0
0 0 0 0 0 0 0 0 0 0 0 0 0 0 0 0 0 0 0 0 0 0 0 0 0 0 0 0 0 0 0 0 0 0 0 0 0 0 0 0 0 0 0

GEFSSE_con_cape1000_294.txt.gz
Probability
6 29 48 45 45 52 48 48 52 55 42 48 39 35 35 39 42 42 45 39 32 32 29 26 23 19 16 16 16 13 13 13 13 13 6 6 6 3 0 0 0 0 0
6 23 48 45 42 48 48 45 45 35 42 35 35 39 35 39 35 39 39 35 35 32 32 26 23 13 10 10 13 13 13 13 13 10 6 6 6 0 0 0 0 0 0
6 26 45 45 45 45 45 48 42 35 35 39 32 35 32 35 35 39 35 29 32 29 26 23 23 16 10 13 10 10 10 10 6 6 3 0 0 0 0 0 3 3 0
10 26 39 45 45 48 48 48 35 32 32 35 29 29 35 32 32 39 35 32 29 29 26 19 16 13 13 10 10 6 6 6 6 0 0 0 0 0 0 3 3 0 0
10 23 39 48 45 45 42 35 42 32 32 29 29 26 26 29 32 35 32 32 29 32 29 23 19 13 10 10 10 6 6 6 0 0 0 0 0 0 3 3 0 0 0
13 26 35 45 45 48 45 32 29 29 29 29 29 29 26 26 26 26 32 26 32 32 26 19 13 13 13 10 10 6 6 6 0 0 0 0 0 0 3 0 0 0 0
16 19 35 45 42 45 42 32 29 29 26 29 29 32 26 26 29 26 29 26 29 32 26 23 16 10 13 10 10 6 6 3 0 0 0 0 0 3 3 0 0 0 0
16 19 29 32 42 42 39 32 29 29 26 26 32 29 26 23 29 29 26 26 26 26 26 19 16 10 10 10 10 6 3 3 0 0 0 0 0 3 3 0 0 0 0
16 19 26 26 26 35 39 32 32 29 29 23 29 23 23 23 23 23 26 23 23 19 19 16 10 13 10 10 10 6 3 3 0 0 0 0 0 3 3 0 0 0 0
16 19 19 19 13 13 13 23 19 19 19 16 16 13 16 19 19 23 23 19 23 19 16 19 13 10 13 10 6 3 3 3 0 0 0 0 0 3 3 0 0 0 0
6 10 13 13 10 10 6 10 13 19 16 16 13 10 6 13 13 13 6 13 13 13 16 16 13 6 6 3 3 3 0 0 0 0 0 0 3 3 3 0 0 0 0
6 6 6 13 10 3 3 3 6 6 10 6 6 3 3 3 6 6 6 10 10 10 10 10 6 6 3 3 3 3 0 0 0 0 0 0 3 6 6 0 0 0 0
3 6 6 3 3 3 3 3 3 3 3 0 3 3 3 3 3 6 6 6 6 3 3 3 3 0 3 0 0 0 0 0 0 0 0 0 6 6 3 0 0 0 0
0 6 6 3 3 3 3 3 3 0 0 0 0 3 3 3 3 3 3 0 3 0 0 0 0 0 0 0 0 0 0 0 0 0 0 0 3 3 0 0 0 0 0
0 0 6 3 3 3 3 3 3 0 0 0 0 0 0 3 3 3 3 0 0 0 0 0 0 0 0 0 0 0 0 0 0 0 0 0 0 3 0 0 0 0 0
0 3 0 0 0 0 0 0 0 0 0 0 0 0 0 0 3 3 0 0 0 0 0 0 0 0 0 0 0 0 0 0 0 0 0 0 0 0 0 0 0 0 0
0 0 0 0 0 0 0 0 0 0 0 0 0 0 0 0 0 0 0 0 0 0 0 0 0 0 0 0 0 0 0 0 0 0 0 0 0 0 0 0 0 0 0
0 0 0 0 0 0 0 0 0 0 0 0 0 0 0 0 0 0 0 0 0 0 0 0 0 0 0 0 0 0 0 0 0 0 0 0 0 0 0 0 0 0 0
0 0 0 0 0 0 0 0 0 0 0 0 0 0 0 0 0 0 0 0 0 0 0 0 0 0 0 0 0 0 0 0 0 0 0 0 0 0 0 0 0 0 0
0 0 0 0 0 0 0 0 0 0 0 0 0 0 0 0 0 0 0 0 0 0 0 0 0 0 0 0 0 0 0 0 0 0 0 0 0 0 0 0 0 0 0
0 0 0 0 0 0 0 0 0 0 0 0 0 0 0 0 0 0 0 0 0 0 0 0 0 0 0 0 0 0 0 0 0 0 0 0 0 0 0 0 0 0 0
0 0 0 0 0 0 0 0 0 0 0 0 0 0 0 0 0 0 0 0 0 0 0 0 0 0 0 0 0 0 0 0 0 0 0 0 0 0 0 0 0 0 0
0 0 0 0 0 0 0 0 0 0 0 0 0 0 0 0 0 0 0 0 0 0 0 0 0 0 0 0 0 0 0 0 0 0 0 0 0 0 0 0 0 0 0
0 0 0 0 0 0 0 0 0 0 0 0 0 0 0 0 0 0 0 0 0 0 0 0 0 0 0 0 0 0 0 0 0 0 0 0 0 0 0 0 0 0 0
0 0 0 0 0 0 0 0 0 0 0 0 0 0 0 0 0 0 0 0 0 0 0 0 0 0 0 0 0 0 0 0 0 0 0 0 0 0 0 0 0 0 0
0 0 0 0 0 0 0 0 0 0 0 0 0 0 0 0 0 0 0 0 0 0 0 0 0 0 0 0 0 0 0 0 0 0 0 0 0 0 0 0 0 0 0

GEFSSE_con_cape1000_300.txt.gz
Probability
0 13 35 39 42 35 39 42 48 48 45 42 39 39 39 35 35 39 35 39 32 32 32 26 26 19 16 16 16 16 16 10 13 13 10 10 10 6 6 3 0 0 3
0 10 35 39 45 45 39 42 39 39 35 39 39 35 32 35 35 32 35 29 29 26 29 26 23 16 16 16 16 16 16 10 6 6 6 6 3 3 0 3 0 0 3
6 16 32 35 48 45 45 39 35 39 35 29 32 35 32 32 32 29 29 29 26 23 23 19 19 16 16 16 16 16 13 6 6 3 3 0 0 3 3 3 0 0 0
6 16 23 42 45 45 39 35 32 29 32 32 32 32 32 32 29 29 29 26 26 23 23 23 13 10 13 16 16 13 13 6 6 0 0 0 0 0 0 0 0 0 0
6 19 23 35 42 45 39 35 29 29 23 26 29 32 26 26 23 26 26 23 23 23 23 23 13 13 10 10 13 13 10 6 3 0 0 0 0 0 3 3 0 0 0
6 16 26 32 39 42 42 35 32 23 23 23 23 26 26 26 26 23 23 26 19 19 16 19 13 10 10 13 13 13 10 6 0 0 0 0 0 0 3 0 0 0 0
10 19 26 29 39 39 39 35 32 26 23 23 23 26 23 23 26 23 19 19 19 19 16 19 16 10 10 13 13 13 10 0 0 0 0 0 0 0 3 0 0 0 0
10 16 26 32 35 39 35 35 26 26 26 26 29 26 23 23 23 23 19 16 19 19 16 16 16 10 10 13 13 13 3 0 0 0 0 0 0 0 3 0 0 0 0
10 10 16 26 23 32 32 32 29 23 32 32 26 23 19 19 23 19 23 19 16 19 16 13 16 13 10 10 13 10 3 0 0 0 0 0 0 0 3 0 0 0 0
3 3 10 10 16 10 13 13 16 16 23 29 26 19 16 16 19 23 19 16 16 16 19 13 16 16 10 10 10 6 3 0 0 0 0 0 0 0 3 3 0 0 0
0 3 6 10 6 6 3 10 10 13 16 16 16 10 13 6 6 6 3 10 13 16 16 13 13 10 3 6 3 3 3 0 0 0 0 0 0 0 3 3 0 0 0
0 0 3 3 3 6 3 3 3 3 3 6 3 3 0 3 3 3 3 3 3 13 13 13 10 3 0 0 3 3 0 0 0 0 0 0 0 0 3 3 3 3 0
0 0 3 0 0 3 3 3 3 0 3 3 3 3 0 0 3 3 3 3 3 3 6 6 3 0 0 0 0 0 0 0 0 0 0 0 0 0 6 6 3 3 0
0 0 3 0 0 0 3 3 3 0 0 3 3 0 0 0 0 0 0 0 3 0 0 0 0 0 0 0 0 0 0 0 0 0 0 0 0 0 6 6 6 3 3
0 0 3 0 0 0 0 3 3 3 0 3 3 0 0 0 0 0 0 0 0 0 0 0 0 0 0 0 0 0 0 0 0 0 0 0 0 0 0 6 6 3 3
0 0 0 0 0 0 0 0 0 3 0 0 0 0 0 0 0 0 0 0 0 0 0 0 0 0 0 0 0 0 0 0 0 0 0 0 0 0 0 3 3 0 0
0 0 0 0 0 0 0 0 0 0 3 0 0 0 0 0 0 0 0 0 0 0 0 0 0 0 0 0 0 0 0 0 0 0 0 0 0 0 0 3 3 0 0
0 0 0 0 0 0 0 0 0 0 0 0 0 0 0 0 0 0 0 0 0 0 0 0 0 0 0 0 0 0 0 0 0 0 0 0 0 0 0 0 0 0 0
0 0 0 0 0 0 0 0 0 0 0 0 0 0 0 0 0 0 0 0 0 0 0 0 0 0 0 0 0 0 0 0 0 0 0 0 0 0 0 0 0 0 0
0 0 0 0 0 0 0 0 0 0 0 0 0 0 0 0 0 0 0 0 0 0 0 0 0 0 0 0 0 0 0 0 0 0 0 0 0 0 0 0 0 0 0
0 0 0 0 0 0 0 0 0 0 0 0 0 0 0 0 0 0 0 0 0 0 0 0 0 0 0 0 0 0 0 0 0 0 0 0 0 0 0 0 0 0 0
0 0 0 0 0 0 0 0 0 0 0 0 0 0 0 0 0 0 0 0 0 0 0 0 0 0 0 0 0 0 0 0 0 0 0 0 0 0 0 0 0 0 0
0 0 0 0 0 0 0 0 0 0 0 0 0 0 0 0 0 0 0 0 0 0 0 0 0 0 0 0 0 0 0 0 0 0 0 0 0 0 0 0 0 0 0
0 0 0 0 0 0 0 0 0 0 0 0 0 0 0 0 0 0 0 0 0 0 0 0 0 0 0 0 0 0 0 0 0 0 0 0 0 0 0 0 0 0 0
0 0 0 0 0 0 0 0 0 0 0 0 0 0 0 0 0 0 0 0 0 0 0 0 0 0 0 0 0 0 0 0 0 0 0 0 0 0 0 0 0 0 0
0 0 0 0 0 0 0 0 0 0 0 0 0 0 0 0 0 0 0 0 0 0 0 0 0 0 0 0 0 0 0 0 0 0 0 0 0 0 0 0 0 0 0

GEFSSE_con_cape1000_306.txt.gz
Probability
6 23 35 35 29 39 39 45 45 48 48 45 42 39 35 35 35 32 32 29 29 26 32 29 23 19 19 16 16 16 19 16 16 13 13 13 10 6 3 3 3 0 0
6 19 29 35 29 29 26 29 39 39 39 42 39 39 35 35 35 32 32 29 29 23 23 23 16 13 19 16 13 13 13 13 16 13 13 6 6 6 3 0 3 0 0
6 16 29 35 29 32 23 29 32 32 35 39 35 39 35 32 32 35 35 29 26 26 19 19 16 13 13 13 13 13 3 6 10 10 6 6 6 3 3 0 3 0 0
6 16 23 32 29 32 23 29 29 29 29 32 32 32 35 32 32 35 35 32 26 23 23 19 19 13 13 13 13 6 6 6 6 6 3 3 6 3 3 0 0 0 0
10 23 29 29 32 29 26 29 29 29 29 32 29 32 29 29 32 35 32 29 23 19 16 19 19 13 13 13 10 6 3 6 6 3 3 3 6 6 3 3 0 0 0
13 23 29 29 29 26 26 29 29 26 29 23 23 26 23 29 26 26 26 29 26 19 16 19 19 19 16 10 10 10 3 6 3 3 3 3 3 6 6 6 0 0 0
10 23 26 26 26 29 29 23 26 29 23 26 23 23 19 23 23 26 26 23 23 23 16 13 16 19 13 10 10 10 10 3 0 0 3 3 3 6 6 3 0 0 0
6 16 26 26 26 29 26 23 23 26 19 26 23 19 19 19 19 26 23 23 23 23 13 10 13 16 16 6 10 10 10 0 0 0 0 0 3 3 6 3 0 0 0
6 10 19 19 19 23 29 26 23 23 23 23 23 19 19 19 19 19 16 19 23 23 23 10 10 10 13 6 6 10 3 0 0 0 0 0 0 0 6 3 3 0 0
10 10 13 13 10 13 13 19 19 19 19 19 19 13 10 16 19 19 13 13 16 23 19 19 10 10 10 10 6 6 3 3 3 3 3 0 0 0 3 3 3 0 0
0 6 10 10 13 13 10 6 10 13 13 13 6 3 6 13 10 6 6 6 13 13 19 16 16 10 6 3 3 3 3 3 3 3 3 0 0 0 3 3 3 3 0
0 0 6 10 10 10 6 10 13 10 13 13 10 6 10 13 10 6 6 3 3 3 6 10 10 10 3 3 0 0 3 3 3 3 3 0 0 0 3 6 3 6 3
0 0 0 3 6 6 6 6 10 13 16 10 10 6 10 10 10 6 6 6 3 3 3 6 6 6 3 3 3 0 3 3 3 3 3 0 0 3 3 6 3 3 6
0 0 0 3 3 6 3 3 6 10 10 10 6 6 10 10 16 10 6 6 6 6 10 10 6 3 3 3 0 0 0 3 3 3 3 0 0 3 3 3 3 3 3
3 0 0 3 3 3 6 6 0 3 3 6 6 6 10 6 3 10 6 6 6 6 10 10 6 3 3 0 0 0 0 0 0 3 3 0 0 0 3 3 3 3 3
0 0 0 0 0 0 0 3 3 3 3 0 3 3 6 3 0 0 6 6 6 6 3 3 3 3 3 0 0 0 0 0 0 0 0 0 0 0 0 6 3 3 3
0 0 0 0 0 0 0 0 0 0 3 0 0 0 0 3 0 0 0 6 3 6 6 6 3 3 0 0 0 0 0 0 0 0 0 0 3 0 0 3 3 3 3
0 0 0 0 0 0 0 0 0 0 0 0 0 0 0 0 0 0 0 0 3 3 6 6 6 3 0 0 0 0 0 0 0 0 0 0 0 0 0 0 0 0 0
0 0 0 0 0 0 0 0 0 0 0 0 0 0 0 0 0 0 0 0 0 0 3 3 3 0 0 0 0 0 0 0 0 0 0 0 0 0 0 0 0 0 0
0 0 0 0 0 0 0 0 0 0 0 0 0 0 0 0 0 0 0 0 0 0 0 0 0 0 0 0 0 0 0 0 0 0 0 0 0 0 0 0 0 0 0
3 3 0 0 0 0 0 0 0 0 0 0 0 0 0 0 0 0 0 0 0 0 0 0 0 0 0 0 0 0 0 0 0 0 0 0 0 0 0 0 0 0 0
0 3 0 0 0 0 0 0 0 0 0 0 0 0 0 0 0 0 0 0 0 0 0 0 0 0 0 0 0 0 0 0 0 0 0 0 0 0 0 0 0 0 0
0 3 0 0 0 0 0 0 0 0 0 0 0 0 0 0 0 0 0 0 0 0 0 0 0 0 0 0 0 0 0 0 0 0 0 0 0 0 0 0 0 0 0
0 3 3 0 0 0 0 0 0 0 0 0 0 0 0 0 0 0 0 0 0 0 0 0 0 0 0 0 0 0 0 0 0 0 0 0 0 0 0 0 0 0 0
0 3 3 3 0 0 0 0 0 0 0 0 0 0 0 0 0 0 0 0 0 0 0 0 0 0 0 0 0 0 0 0 0 0 0 0 0 0 0 0 0 0 0
0 0 3 3 0 0 0 0 0 0 0 0 0 0 0 0 0 0 0 0 0 0 0 0 0 0 0 0 0 0 0 0 0 0 0 0 0 0 0 0 0 0 0

GEFSSE_con_cape1000_312.txt.gz
Probability
19 23 29 29 35 39 35 42 35 35 45 42 42 42 42 39 35 35 39 26 26 23 29 29 16 16 16 13 16 16 16 13 16 16 16 13 6 3 0 3 0 0 3
16 19 26 26 29 35 32 32 32 42 42 42 39 35 39 39 32 32 32 29 26 26 29 26 19 16 19 16 16 16 13 10 13 10 10 10 10 3 3 10 3 0 0
16 16 23 26 26 32 35 29 23 29 32 42 39 35 35 39 35 32 35 29 26 26 29 19 16 13 19 19 16 13 10 3 3 10 10 0 0 6 0 0 3 3 0
13 10 19 29 26 32 32 23 23 26 26 29 29 32 35 39 32 32 29 29 26 26 29 23 19 19 19 19 13 10 3 3 3 3 3 0 3 3 0 0 3 0 0
10 10 19 23 26 29 29 26 19 23 26 26 23 29 29 35 32 29 29 29 26 26 26 19 16 16 19 16 10 10 10 3 3 3 0 0 0 3 3 0 0 0 3
6 13 16 23 23 26 26 19 19 19 19 19 23 23 26 26 29 32 29 26 26 26 23 16 16 16 16 13 10 6 3 3 3 3 0 0 3 10 3 0 0 0 0
3 10 16 23 23 23 19 19 19 16 16 16 19 16 23 19 23 26 26 23 26 23 16 19 19 16 13 13 10 10 3 3 0 0 0 0 3 6 3 3 0 0 0
3 6 10 19 19 19 19 19 19 23 19 16 16 19 16 19 23 26 26 23 23 19 13 16 16 13 13 13 10 10 6 3 3 0 0 0 3 6 3 3 3 0 0
6 6 3 13 13 16 16 16 19 23 19 19 19 16 13 13 16 19 23 16 16 16 10 10 13 13 13 16 10 6 6 3 0 0 0 0 6 6 3 3 3 0 0
3 10 3 10 10 10 10 16 13 13 16 19 19 13 10 10 10 13 13 13 13 16 13 10 10 10 10 10 10 6 6 0 0 0 0 0 6 6 6 3 3 3 3
0 6 6 3 0 3 6 6 3 10 10 13 13 3 0 3 0 3 6 10 13 13 10 13 10 10 10 6 6 3 0 0 0 3 0 0 6 6 6 3 3 3 3
3 6 6 6 3 0 3 3 3 3 3 0 3 3 0 0 0 0 0 0 6 6 6 13 13 10 3 0 0 0 0 0 0 3 0 0 6 6 6 3 3 3 3
0 0 3 3 6 3 0 3 0 3 0 0 0 0 0 0 0 0 0 0 0 3 0 3 6 3 0 0 0 0 0 0 0 0 0 0 6 6 6 6 3 3 3
0 0 0 0 0 0 0 0 0 0 0 0 0 0 0 0 0 0 0 0 0 0 3 0 0 0 0 0 0 0 0 0 0 0 0 0 3 6 6 6 3 3 3
0 0 0 0 0 0 0 0 0 0 3 0 0 0 0 0 0 0 0 0 0 0 0 0 0 0 0 0 0 0 0 0 0 0 0 0 0 3 6 6 3 3 3
0 0 0 0 0 0 0 0 0 0 0 0 0 0 0 0 0 0 0 0 0 0 0 0 0 0 0 0 0 0 0 0 0 0 0 0 0 0 6 6 6 3 3
0 0 0 0 0 0 0 0 0 0 0 0 0 0 0 0 0 0 0 0 0 0 0 0 0 0 0 0 0 0 0 0 0 0 0 0 0 0 0 3 6 6 3
0 0 0 0 0 0 0 0 0 0 0 0 0 0 0 0 0 0 0 0 0 0 0 0 0 0 0 0 0 0 0 0 0 0 0 0 0 0 0 0 3 3 3
0 0 0 0 0 0 0 0 0 0 0 0 0 0 0 0 0 0 0 0 0 0 0 0 0 0 0 0 0 0 0 0 0 0 0 0 0 0 0 0 0 0 3
0 0 0 0 0 0 0 0 0 0 0 0 0 0 0 0 0 0 0 0 0 0 0 0 0 0 0 0 0 0 0 0 0 0 0 0 0 0 0 0 0 0 0
0 0 0 0 0 0 0 0 0 0 0 0 0 0 0 0 0 0 0 0 0 0 0 0 0 0 0 0 0 0 0 0 0 0 0 0 0 0 0 0 0 0 0
0 0 0 0 0 0 0 0 0 0 0 0 0 0 0 0 0 0 0 0 0 0 0 0 0 0 0 0 0 0 0 0 0 0 0 0 0 0 0 0 0 0 0
0 0 0 0 0 0 0 0 0 0 0 0 0 0 0 0 0 0 0 0 0 0 0 0 0 0 0 0 0 0 0 0 0 0 0 0 0 0 0 0 0 0 0
0 0 0 0 0 0 0 0 0 0 0 0 0 0 0 0 0 0 0 0 0 0 0 0 0 0 0 0 0 0 0 0 0 0 0 0 0 0 0 0 0 0 0
0 0 0 0 0 0 0 0 0 0 0 0 0 0 0 0 0 0 0 0 0 0 0 0 0 0 0 0 0 0 0 0 0 0 0 0 0 0 0 0 0 0 0
0 0 0 0 0 0 0 0 0 0 0 0 0 0 0 0 0 0 0 0 0 0 0 0 0 0 0 0 0 0 0 0 0 0 0 0 0 0 0 0 0 0 0

GEFSSE_con_cape1000_318.txt.gz
Probability
13 13 29 29 32 42 39 32 29 32 35 39 39 39 35 32 29 32 35 29 29 26 26 32 32 26 16 13 13 13 10 13 16 13 13 13 0 0 0 3 3 0 3
10 16 29 29 35 42 39 29 29 26 29 39 39 39 39 32 29 29 35 32 29 26 29 26 26 19 16 10 10 13 13 13 10 16 13 10 3 6 0 3 3 0 0
13 16 26 29 29 39 42 32 32 32 32 29 29 39 39 35 35 29 32 32 26 26 26 23 19 19 16 10 10 13 10 6 6 10 3 0 3 0 3 3 3 0 0
10 13 16 29 26 32 29 26 26 29 32 32 29 29 35 39 35 32 29 29 26 26 26 26 19 19 16 6 10 10 6 6 3 3 0 0 0 3 0 3 0 0 0
6 6 13 26 29 29 26 23 26 26 29 32 26 29 29 32 35 32 29 29 26 29 29 26 23 19 13 6 10 6 3 3 3 0 0 0 0 3 0 0 0 0 0
0 6 10 26 26 26 23 19 16 23 19 19 26 26 29 29 29 26 29 29 29 29 26 26 19 16 16 10 6 3 3 3 3 0 0 0 0 3 3 0 0 0 0
0 6 10 19 26 29 19 19 16 19 16 19 19 23 23 23 26 26 26 29 29 29 26 23 19 16 16 16 10 6 3 3 0 0 0 0 0 10 3 3 0 0 0
0 6 10 19 16 19 23 19 16 16 19 16 23 19 19 23 19 19 23 23 29 29 23 19 16 13 16 16 10 6 3 0 0 0 0 0 0 10 3 3 3 0 0
3 3 3 3 6 10 10 10 16 10 10 13 19 19 19 16 13 16 16 19 19 23 16 16 16 10 10 13 6 6 3 0 0 0 0 0 0 6 6 3 3 3 0
3 3 3 0 0 0 0 6 6 6 10 10 13 10 10 13 13 13 19 16 19 16 10 13 13 13 10 10 6 3 3 0 0 0 0 0 0 6 6 3 3 3 3
0 3 3 0 0 0 3 3 0 3 3 3 0 0 0 3 6 10 6 10 10 6 10 10 10 10 10 3 3 3 0 0 0 0 0 0 3 6 6 6 3 3 3
0 0 0 0 0 0 3 0 0 0 0 0 0 0 0 0 0 0 0 0 3 3 6 3 6 10 10 3 0 0 0 0 0 0 0 0 6 6 6 6 3 3 3
0 0 0 0 0 0 0 0 0 0 0 0 0 0 0 0 0 0 0 0 0 0 0 0 0 0 0 0 0 0 0 0 0 0 0 0 0 6 6 6 6 3 3
0 0 0 0 0 0 0 0 0 0 0 0 0 0 0 0 0 0 0 0 0 0 0 0 0 0 0 0 0 0 0 0 0 0 0 0 0 3 6 6 6 3 3
0 0 0 0 0 0 0 0 0 0 0 0 0 0 0 0 0 0 0 0 0 0 0 0 0 0 0 0 0 0 0 0 0 0 0 0 0 3 3 3 6 3 3
0 0 0 0 0 0 0 0 0 0 0 0 0 0 0 0 0 0 0 0 0 0 0 0 0 0 0 0 0 0 0 0 0 0 0 0 0 0 3 3 3 3 0
0 0 0 0 0 0 0 0 0 0 0 0 0 0 0 0 0 0 0 0 0 0 0 0 0 0 0 0 0 0 0 0 0 0 0 0 0 0 0 3 3 3 3
0 0 0 0 0 0 0 0 0 0 0 0 0 0 0 0 0 0 0 0 0 0 0 0 0 0 0 0 0 0 0 0 0 0 0 0 0 0 0 0 3 6 3
0 0 0 0 0 0 0 0 0 0 0 0 0 0 0 0 0 0 0 0 0 0 0 0 0 0 0 0 0 0 0 0 0 0 0 0 0 0 0 0 0 3 3
0 0 0 0 0 0 0 0 0 0 0 0 0 0 0 0 0 0 0 0 0 0 0 0 0 0 0 0 0 0 0 0 0 0 0 0 0 0 0 0 0 0 0
0 0 0 0 0 0 0 0 0 0 0 0 0 0 0 0 0 0 0 0 0 0 0 0 0 0 0 0 0 0 0 0 0 0 0 0 0 0 0 0 0 0 0
0 0 0 0 0 0 0 0 0 0 0 0 0 0 0 0 0 0 0 0 0 0 0 0 0 0 0 0 0 0 0 0 0 0 0 0 0 0 0 0 0 0 0
0 0 0 0 0 0 0 0 0 0 0 0 0 0 0 0 0 0 0 0 0 0 0 0 0 0 0 0 0 0 0 0 0 0 0 0 0 0 0 0 0 0 0
0 0 0 0 0 0 0 0 0 0 0 0 0 0 0 0 0 0 0 0 0 0 0 0 0 0 0 0 0 0 0 0 0 0 0 0 0 0 0 0 0 0 0
0 0 0 0 0 0 0 0 0 0 0 0 0 0 0 0 0 0 0 0 0 0 0 0 0 0 0 0 0 0 0 0 0 0 0 0 0 0 0 0 0 0 0
0 0 0 0 0 0 0 0 0 0 0 0 0 0 0 0 0 0 0 0 0 0 0 0 0 0 0 0 0 0 0 0 0 0 0 0 0 0 0 0 0 0 0

GEFSSE_con_cape1000_324.txt.gz
Probability
3 6 26 29 26 32 32 29 29 32 32 32 35 35 32 32 32 35 32 32 32 32 32 29 29 26 16 16 10 10 13 13 13 13 13 6 3 3 3 3 3 0 3
3 6 29 32 26 32 32 29 29 29 26 26 29 39 39 29 29 29 29 29 29 32 26 23 26 19 19 10 10 10 10 6 13 13 16 10 6 3 3 3 0 0 3
3 13 19 29 29 32 26 26 23 35 26 26 26 26 29 32 29 29 26 29 29 29 26 23 26 19 13 10 10 10 3 3 6 10 3 0 0 3 0 3 3 0 0
6 16 19 26 29 32 29 26 29 29 29 29 26 29 29 29 29 26 29 29 29 29 26 26 26 19 13 10 6 6 6 3 3 3 0 0 0 3 0 0 0 0 3
6 13 16 26 32 26 26 23 26 29 26 26 26 29 29 26 23 26 29 29 29 29 29 26 23 16 10 6 6 6 3 3 3 0 0 0 0 0 0 0 0 0 3
0 3 13 23 26 19 23 19 23 26 23 26 23 26 29 29 26 23 29 29 29 29 29 29 26 19 16 10 6 3 3 3 3 0 0 0 0 0 0 0 0 3 0
0 3 10 13 16 16 13 16 23 26 23 23 19 23 26 26 26 23 23 23 26 26 26 26 19 19 19 13 3 3 3 3 0 0 0 0 0 0 3 0 0 0 0
0 0 6 19 13 16 10 10 13 16 19 16 16 16 16 19 23 23 16 19 19 23 26 19 16 16 16 16 3 3 3 3 0 0 0 0 0 0 3 3 3 0 0
0 0 6 6 6 6 6 6 6 10 13 10 13 13 13 16 19 23 16 16 16 16 19 16 10 13 13 13 6 3 3 0 0 0 0 0 0 3 3 3 3 3 3
0 3 6 6 3 3 3 3 3 10 10 6 10 10 6 10 10 16 16 13 16 16 16 13 13 10 13 10 6 3 3 0 0 0 0 0 0 3 6 3 3 3 3
0 3 3 3 0 0 0 0 0 3 3 3 3 3 3 3 3 3 6 13 13 13 10 6 6 6 6 3 3 3 0 0 0 0 0 0 0 3 6 3 3 3 3
0 3 3 0 0 0 0 0 0 0 0 0 0 0 0 0 0 0 0 0 3 3 6 3 3 3 0 0 0 0 0 0 0 0 0 0 0 3 3 6 3 3 3
3 6 0 0 0 0 0 0 0 0 0 0 0 0 0 0 0 0 0 0 0 0 0 0 3 0 0 0 0 0 0 0 0 0 0 0 0 3 3 3 6 3 3
0 3 0 0 0 0 0 0 0 0 0 0 0 0 0 0 0 0 0 0 0 0 0 0 0 0 0 0 0 0 0 0 0 0 0 0 0 3 3 3 3 3 3
0 0 3 0 0 0 0 0 0 0 0 0 0 0 0 0 0 0 0 0 0 0 0 0 0 0 0 0 0 0 0 0 0 0 0 0 0 3 3 3 3 3 3
0 0 0 0 0 0 0 0 0 0 0 0 0 0 0 0 0 0 0 0 0 0 0 0 0 0 0 0 0 0 0 0 0 0 0 0 0 0 3 3 3 6 3
0 0 0 0 0 0 0 0 0 0 0 0 0 0 0 0 0 0 0 0 0 0 0 0 0 0 0 0 0 0 0 0 0 0 0 0 0 0 0 3 3 6 6
0 0 0 0 0 0 0 0 0 0 0 0 0 0 0 0 0 0 0 0 0 0 0 0 0 0 0 0 0 0 0 0 0 0 0 0 0 0 0 0 0 6 6
0 0 0 0 0 0 0 0 0 0 0 0 0 0 0 0 0 0 0 0 0 0 0 0 0 0 0 0 0 0 0 0 0 0 0 0 0 0 0 0 0 0 6
0 0 0 0 0 0 0 0 0 0 0 0 0 0 0 0 0 0 0 0 0 0 0 0 0 0 0 0 0 0 0 0 0 0 0 0 0 0 0 0 0 0 0
0 0 0 0 0 0 0 0 0 0 0 0 0 0 0 0 0 0 0 0 0 0 0 0 0 0 0 0 0 0 0 0 0 0 0 0 0 0 0 0 0 0 0
0 0 0 0 0 0 0 0 0 0 0 0 0 0 0 0 0 0 0 0 0 0 0 0 0 0 0 0 0 0 0 0 0 0 0 0 0 0 0 0 0 0 0
0 0 0 0 0 0 0 0 0 0 0 0 0 0 0 0 0 0 0 0 0 0 0 0 0 0 0 0 0 0 0 0 0 0 0 0 0 0 0 0 0 0 0
0 0 0 0 0 0 0 0 0 0 0 0 0 0 0 0 0 0 0 0 0 0 0 0 0 0 0 0 0 0 0 0 0 0 0 0 0 0 0 0 0 0 0
0 0 0 0 0 0 0 0 0 0 0 0 0 0 0 0 0 0 0 0 0 0 0 0 0 0 0 0 0 0 0 0 0 0 0 0 0 0 0 0 0 0 0
0 0 0 0 0 0 0 0 0 0 0 0 0 0 0 0 0 0 0 0 0 0 0 0 0 0 0 0 0 0 0 0 0 0 0 0 0 0 0 0 0 0 0

GEFSSE_con_cape1000_330.txt.gz
Probability
3 13 16 23 23 29 35 32 32 32 32 35 35 35 29 32 32 35 32 35 35 29 26 23 23 19 13 16 16 16 10 10 13 10 3 3 3 0 0 0 0 0 6
3 10 23 23 23 32 35 29 29 29 29 32 32 23 23 26 26 32 32 35 32 29 26 23 19 19 13 10 13 13 13 16 10 10 6 3 3 0 0 0 0 0 0
6 10 16 29 29 29 32 26 26 29 29 26 26 19 19 23 23 23 26 29 32 29 26 23 19 19 16 10 10 16 13 13 13 3 0 0 0 0 0 0 3 0 0
13 16 13 23 26 29 23 23 23 26 23 29 26 23 19 19 23 23 23 26 26 32 29 26 23 16 16 10 10 10 10 10 6 3 0 0 0 0 0 0 0 0 3
13 13 16 26 26 23 19 19 19 23 23 26 23 26 23 19 23 23 23 23 26 29 29 32 26 19 16 13 10 6 6 3 3 0 3 3 3 0 0 0 3 0 3
6 13 19 23 23 23 23 23 23 23 26 23 23 23 19 19 19 23 26 26 23 26 26 26 23 19 16 13 13 6 3 3 3 3 3 0 0 0 3 0 3 3 0
6 6 16 16 13 19 23 19 19 19 19 19 19 19 19 16 19 26 23 23 19 19 19 19 23 16 16 16 10 3 3 3 3 3 3 3 0 3 0 3 0 0 0
13 6 13 10 13 6 10 10 10 13 13 13 10 16 16 13 16 19 19 16 19 16 16 13 13 10 10 10 13 6 6 3 0 3 3 3 0 0 3 3 3 3 0
3 3 6 10 6 6 6 6 10 10 10 10 6 10 10 13 16 16 16 16 16 16 16 13 13 6 6 10 3 10 6 0 3 3 3 3 0 0 3 6 3 3 3
3 3 3 10 10 6 6 6 6 6 6 10 6 6 6 10 6 10 13 16 16 13 16 13 10 6 6 6 0 3 0 0 0 6 3 3 0 0 3 3 6 3 3
0 3 3 6 10 10 3 3 3 0 3 3 3 0 3 6 6 6 3 10 13 16 16 16 16 10 3 3 0 0 0 3 3 3 3 0 0 0 3 6 3 3 3
0 3 3 3 3 6 3 3 3 3 3 0 3 3 6 6 6 0 0 0 10 13 13 16 6 3 3 3 0 0 0 3 3 0 3 0 0 0 3 3 3 0 3
0 0 0 3 3 3 6 6 3 3 3 0 0 0 3 3 3 3 6 3 6 3 10 6 3 3 3 3 0 0 0 6 3 0 0 0 0 0 6 3 3 0 0
0 0 0 0 3 3 3 6 6 3 3 0 0 0 0 3 3 3 3 6 6 10 10 10 6 3 3 3 0 0 0 0 6 3 0 0 0 0 6 3 3 3 3
0 0 0 0 0 0 3 3 3 3 0 0 0 0 0 0 0 0 0 3 3 10 6 10 6 3 3 3 0 0 0 0 0 3 0 0 0 0 3 3 3 3 3
0 0 0 0 0 0 0 0 0 3 0 0 0 0 0 0 0 0 0 0 0 6 6 3 3 3 3 3 3 0 0 0 0 0 0 0 0 0 3 3 3 3 3
0 0 0 0 0 0 0 0 0 0 0 0 0 0 0 0 0 0 0 0 0 3 0 0 0 0 3 3 0 0 0 0 0 0 0 0 0 0 0 3 3 3 3
0 0 0 0 0 0 0 0 0 0 0 0 0 0 0 0 0 0 0 0 0 3 0 0 0 0 0 3 0 0 0 0 0 0 0 0 0 0 0 0 0 3 6
0 0 0 0 0 0 0 0 0 0 0 0 0 0 0 0 0 0 0 0 0 0 0 0 0 0 0 0 0 0 0 0 0 0 0 0 0 0 0 0 0 0 3
0 0 0 0 0 0 0 0 0 0 0 0 0 0 0 0 0 0 0 0 0 0 0 0 0 0 0 0 0 0 0 0 0 0 0 0 0 0 0 0 0 0 0
0 0 0 0 0 0 0 0 0 0 0 0 0 0 0 0 0 0 0 0 0 0 0 0 0 0 0 0 0 0 0 0 0 0 0 0 0 0 0 0 0 0 0
0 0 0 0 0 0 0 0 0 0 0 0 0 0 0 0 0 0 0 0 0 0 0 0 0 0 0 0 0 0 0 0 0 0 0 0 0 0 0 0 0 0 0
0 0 0 0 0 0 0 0 0 0 0 0 0 0 0 0 0 0 0 0 0 0 0 0 0 0 0 0 0 0 0 0 0 0 0 0 0 0 0 0 0 0 0
0 0 0 0 0 0 0 0 0 0 0 0 0 0 0 0 0 0 0 0 0 0 0 0 0 0 0 0 0 0 0 0 0 0 0 0 0 0 0 0 0 0 0
0 0 0 0 0 0 0 0 0 0 0 0 0 0 0 0 0 0 0 0 0 0 0 0 0 0 0 0 0 0 0 0 0 0 0 0 0 0 0 0 0 0 0
0 0 0 0 0 0 0 0 0 0 0 0 0 0 0 0 0 0 0 0 0 0 0 0 0 0 0 0 0 0 0 0 0 0 0 0 0 0 0 0 0 0 0